• în România
  • Lista ţărilor
  • Pe 7 zile
  • Temperatura apei
  • Hartă satelitară
  • Meteo pe hartă
  • Widget-uri
  • user-avatar
    Intrare

    Meteo pe oră la Canillo

    Astăzi, 18 Octombrie, Miercuri

    Timp Temperatura Precipitaţii Vânt Presiune Umiditate
    00:00 +6°C° 0 mm 2 m/s 619 mmHg 83%
    01:00 +6°C° 0 mm 2 m/s 619 mmHg 82%
    02:00 +6°C° 0 mm 2 m/s 618 mmHg 81%
    03:00 +6°C° 0 mm 2 m/s 618 mmHg 80%
    04:00 +6°C° 0 mm 2 m/s 618 mmHg 81%
    05:00 +6°C° 0 mm 2 m/s 618 mmHg 81%
    06:00 +6°C° 0 mm 2 m/s 618 mmHg 81%
    07:00 +8°C° 0 mm 2 m/s 618 mmHg 76%
    08:00 +9°C° 0 mm 2 m/s 619 mmHg 70%
    09:00 +11°C° 0 mm 3 m/s 619 mmHg 64%
    10:00 +12°C° 0,3 mm 3 m/s 619 mmHg 61%
    11:00 +13°C° 0,3 mm 3 m/s 619 mmHg 58%
    12:00 +14°C° 0,3 mm 4 m/s 619 mmHg 56%
    13:00 +13°C° 1,5 mm 3 m/s 618 mmHg 62%
    14:00 +12°C° 1,5 mm 3 m/s 617 mmHg 68%
    15:00 +11°C° 1,5 mm 3 m/s 617 mmHg 74%
    16:00 +10°C° 2,3 mm 3 m/s 616 mmHg 78%
    17:00 +9°C° 2,3 mm 3 m/s 616 mmHg 81%
    18:00 +9°C° 2,3 mm 3 m/s 616 mmHg 85%
    19:00 +8°C° 2 mm 3 m/s 616 mmHg 87%
    20:00 +8°C° 2 mm 3 m/s 616 mmHg 89%
    21:00 +7°C° 2 mm 3 m/s 616 mmHg 91%
    22:00 +7°C° 2,2 mm 2 m/s 616 mmHg 93%
    23:00 +7°C° 2,2 mm 2 m/s 615 mmHg 94%

    Mâine, 19 Octombrie, Joi

    Timp Temperatura Precipitaţii Vânt Presiune Umiditate
    00:00 +7°C° 2,2 mm 2 m/s 615 mmHg 96%
    01:00 +6°C° 2,7 mm 2 m/s 615 mmHg 96%
    02:00 +7°C° 2,7 mm 1 m/s 615 mmHg 96%
    03:00 +7°C° 2,7 mm 1 m/s 615 mmHg 97%
    04:00 +7°C° 2,8 mm 1 m/s 615 mmHg 96%
    05:00 +7°C° 2,8 mm 1 m/s 614 mmHg 96%
    06:00 +7°C° 2,8 mm 1 m/s 614 mmHg 96%
    07:00 +7°C° 2,3 mm 1 m/s 615 mmHg 95%
    08:00 +7°C° 2,3 mm 1 m/s 615 mmHg 94%
    09:00 +7°C° 2,3 mm 1 m/s 615 mmHg 93%
    10:00 +7°C° 1,5 mm 1 m/s 615 mmHg 93%
    11:00 +7°C° 1,5 mm 1 m/s 615 mmHg 92%
    12:00 +7°C° 1,5 mm 1 m/s 615 mmHg 91%
    13:00 +7°C° 1,2 mm 1 m/s 615 mmHg 90%
    14:00 +7°C° 1,2 mm 1 m/s 615 mmHg 90%
    15:00 +7°C° 1,2 mm 1 m/s 615 mmHg 89%
    16:00 +7°C° 0,3 mm 1 m/s 615 mmHg 91%
    17:00 +7°C° 0,3 mm 1 m/s 615 mmHg 92%
    18:00 +6°C° 0,3 mm 1 m/s 615 mmHg 93%
    19:00 +6°C° 0,2 mm 1 m/s 615 mmHg 92%
    20:00 +6°C° 0,2 mm 1 m/s 616 mmHg 91%
    21:00 +6°C° 0,2 mm 1 m/s 616 mmHg 90%
    22:00 +6°C° 0 mm 1 m/s 616 mmHg 89%
    23:00 +6°C° 0 mm 1 m/s 616 mmHg 88%

    Poimâine, 20 Octombrie, Vineri

    Timp Temperatura Precipitaţii Vânt Presiune Umiditate
    00:00 +6°C° 0 mm 1 m/s 616 mmHg 87%
    01:00 +6°C° 0 mm 1 m/s 616 mmHg 87%
    02:00 +6°C° 0 mm 1 m/s 617 mmHg 87%
    03:00 +5°C° 0 mm 1 m/s 617 mmHg 87%
    04:00 +4°C° 0 mm 2 m/s 617 mmHg 86%
    05:00 +4°C° 0 mm 2 m/s 617 mmHg 85%
    06:00 +4°C° 0 mm 2 m/s 617 mmHg 84%
    07:00 +7°C° 0 mm 1 m/s 619 mmHg 77%
    08:00 +9°C° 0 mm 1 m/s 620 mmHg 71%
    09:00 +11°C° 0 mm 1 m/s 621 mmHg 64%
    10:00 +12°C° 0 mm 1 m/s 622 mmHg 61%
    11:00 +13°C° 0 mm 1 m/s 622 mmHg 57%
    12:00 +14°C° 0 mm 1 m/s 623 mmHg 54%
    13:00 +14°C° 0 mm 2 m/s 622 mmHg 57%
    14:00 +13°C° 0 mm 2 m/s 622 mmHg 61%
    15:00 +13°C° 0 mm 2 m/s 622 mmHg 64%
    16:00 +10°C° 0 mm 2 m/s 621 mmHg 72%
    17:00 +9°C° 0 mm 1 m/s 621 mmHg 81%
    18:00 +8°C° 0 mm 1 m/s 620 mmHg 89%
    19:00 +7°C° 0 mm 1 m/s 621 mmHg 89%
    20:00 +7°C° 0 mm 1 m/s 621 mmHg 88%
    21:00 +7°C° 0 mm 1 m/s 621 mmHg 88%
    22:00 +7°C° 0 mm 1 m/s 621 mmHg 87%
    23:00 +7°C° 0 mm 1 m/s 621 mmHg 86%

    21 Octombrie, Sâmbătă

    Timp Temperatura Precipitaţii Vânt Presiune Umiditate
    00:00 +6°C° 0 mm 1 m/s 621 mmHg 84%
    01:00 +6°C° 0 mm 1 m/s 620 mmHg 82%
    02:00 +6°C° 0 mm 1 m/s 620 mmHg 80%
    03:00 +6°C° 0 mm 1 m/s 620 mmHg 78%
    04:00 +6°C° 0 mm 1 m/s 620 mmHg 75%
    05:00 +6°C° 0 mm 1 m/s 620 mmHg 72%
    06:00 +6°C° 0 mm 1 m/s 621 mmHg 70%
    07:00 +8°C° 0 mm 1 m/s 622 mmHg 65%
    08:00 +10°C° 0 mm 1 m/s 623 mmHg 61%
    09:00 +12°C° 0 mm 1 m/s 624 mmHg 57%
    10:00 +12°C° 0 mm 1 m/s 624 mmHg 58%
    11:00 +13°C° 0 mm 2 m/s 624 mmHg 59%
    12:00 +13°C° 0 mm 2 m/s 625 mmHg 60%
    13:00 +12°C° 0,1 mm 2 m/s 624 mmHg 64%
    14:00 +10°C° 0,1 mm 2 m/s 624 mmHg 69%
    15:00 +10°C° 0,1 mm 2 m/s 623 mmHg 73%
    16:00 +8°C° 0,2 mm 2 m/s 623 mmHg 79%
    17:00 +7°C° 0,2 mm 2 m/s 623 mmHg 85%
    18:00 +6°C° 0,2 mm 2 m/s 623 mmHg 90%
    19:00 +6°C° 0,2 mm 2 m/s 623 mmHg 92%
    20:00 +6°C° 0,2 mm 2 m/s 623 mmHg 93%
    21:00 +5°C° 0,2 mm 2 m/s 624 mmHg 94%
    22:00 +5°C° 0,1 mm 2 m/s 624 mmHg 94%
    23:00 +5°C° 0,1 mm 2 m/s 623 mmHg 95%

    22 Octombrie, Duminică

    Timp Temperatura Precipitaţii Vânt Presiune Umiditate
    00:00 +4°C° 0,1 mm 2 m/s 623 mmHg 95%
    01:00 +4°C° 0,1 mm 2 m/s 623 mmHg 94%
    02:00 +4°C° 0,1 mm 2 m/s 623 mmHg 94%
    03:00 +3°C° 0,1 mm 2 m/s 623 mmHg 93%
    04:00 +3°C° 0 mm 2 m/s 623 mmHg 92%
    05:00 +2°C° 0 mm 2 m/s 623 mmHg 91%
    06:00 +1°C° 0 mm 2 m/s 622 mmHg 90%
    07:00 +3°C° 0 mm 2 m/s 623 mmHg 84%
    08:00 +3°C° 0 mm 3 m/s 624 mmHg 78%
    09:00 +4°C° 0 mm 3 m/s 624 mmHg 71%
    10:00 +5°C° 0 mm 3 m/s 625 mmHg 64%
    11:00 +7°C° 0 mm 3 m/s 625 mmHg 57%
    12:00 +9°C° 0 mm 3 m/s 625 mmHg 50%
    13:00 +8°C° 0 mm 3 m/s 625 mmHg 51%
    14:00 +8°C° 0 mm 3 m/s 624 mmHg 52%
    15:00 +8°C° 0 mm 3 m/s 624 mmHg 53%
    16:00 +5°C° 0 mm 3 m/s 624 mmHg 62%
    17:00 +3°C° 0 mm 3 m/s 623 mmHg 71%
    18:00 +3°C° 0 mm 2 m/s 623 mmHg 79%
    19:00 +2°C° 0 mm 2 m/s 623 mmHg 80%
    20:00 +2°C° 0 mm 2 m/s 623 mmHg 81%
    21:00 +2°C° 0 mm 2 m/s 623 mmHg 82%
    22:00 +2°C° 0 mm 2 m/s 623 mmHg 82%
    23:00 +1°C° 0 mm 2 m/s 623 mmHg 82%

    23 Octombrie, Luni

    Timp Temperatura Precipitaţii Vânt Presiune Umiditate
    00:00 +1°C° 0 mm 2 m/s 622 mmHg 82%
    01:00 +1°C° 0 mm 2 m/s 622 mmHg 80%
    02:00 +1°C° 0 mm 2 m/s 622 mmHg 78%
    03:00 +1°C° 0 mm 2 m/s 622 mmHg 76%
    04:00 +1°C° 0 mm 2 m/s 622 mmHg 74%
    05:00 +1°C° 0 mm 2 m/s 622 mmHg 72%
    06:00 +1°C° 0 mm 2 m/s 621 mmHg 70%
    07:00 +3°C° 0 mm 2 m/s 622 mmHg 62%
    08:00 +6°C° 0 mm 1 m/s 623 mmHg 55%
    09:00 +8°C° 0 mm 1 m/s 624 mmHg 48%
    10:00 +10°C° 0 mm 1 m/s 625 mmHg 45%
    11:00 +11°C° 0 mm 1 m/s 625 mmHg 41%
    12:00 +13°C° 0 mm 2 m/s 625 mmHg 38%
    13:00 +12°C° 0 mm 1 m/s 625 mmHg 40%
    14:00 +12°C° 0 mm 1 m/s 624 mmHg 43%
    15:00 +12°C° 0 mm 1 m/s 624 mmHg 45%
    16:00 +10°C° 0 mm 1 m/s 623 mmHg 52%
    17:00 +8°C° 0 mm 1 m/s 622 mmHg 59%
    18:00 +6°C° 0 mm 1 m/s 621 mmHg 67%
    19:00 +6°C° 0 mm 1 m/s 621 mmHg 63%
    20:00 +6°C° 0 mm 1 m/s 621 mmHg 60%
    21:00 +6°C° 0 mm 1 m/s 621 mmHg 56%
    22:00 +6°C° 0 mm 1 m/s 621 mmHg 53%
    23:00 +6°C° 0 mm 1 m/s 621 mmHg 50%
    Arată mai mult